Weather History for Traverse City, MI

Change the Weather History Date:

Monday, May 20, 2013

  Actual Average Record
Temperature  
Mean Temperature 70 °F 55 °F  
Max Temperature 86 °F 67 °F 95 °F (1977)
Min Temperature 53 °F 43 °F 28 °F (2000)
Degree Days  
Heating Degree Days 0 11  
Month to date heating degree days 225 272  
Since 1 July heating degree days 6884 7339  
Cooling Degree Days 5 1  
Month to date cooling degree days 13 3  
Year to date cooling degree days 15 6  
Growing Degree Days 20 (Base 50)    
Moisture  
Dew Point 58 °F    
Average Humidity 72    
Maximum Humidity 100    
Minimum Humidity 43    
Precipitation  
Precipitation 0.09 in 0.09 in 0.68 in (1985)
Month to date precipitation 0.96 1.67  
Year to date precipitation 10.64 10.63  
Sea Level Pressure  
Sea Level Pressure 29.76 in    
Wind  
Wind Speed 4 mph (WSW)    
Max Wind Speed 14 mph    
Max Gust Speed 22 mph    
Visibility 8 miles    
Events Rain , Thunderstorm    
T = Trace of Precipitation, MM = Missing Value Source: NWS Daily Summary

Daily Weather History Graph

Daily Weather History Graph

Search for Another Location

Airport:

Trip Planner

Search our weather history database for the weather conditions in past years. The results will help you decide how hot, cold, wet, or windy it might be!

Date:

Astronomy

May. 20, 2013 Rise Set
Actual Time 6:08 AM EDT 9:09 PM EDT
Civil Twilight 5:34 AM EDT 9:44 PM EDT
Nautical Twilight 4:49 AM EDT 10:29 PM EDT
Astronomical Twilight 3:56 AM EDT 11:22 PM EDT
Moon 4:05 PM EDT (5/20) 3:15 AM EDT (5/20)
Length of Visible Light 16h 10m
Length of Day
15h 01m
Waxing Gibbous, 75% of the Moon is Illuminated
May 20
Waxing Gibbous
May 25
Full
May 31
Last Quarter
Jun 8
New
Jun 16
First Quarter

Hourly Weather History & Observations

Time (EDT) Temp. Heat Index Dew Point Humidity Pressure Visibility Wind Dir Wind Speed Gust Speed Precip Events Conditions
12:53 AM 55.0 °F - 51.1 °F 86% 29.84 in 6.0 mi Calm Calm - N/A   Clear
1:53 AM 55.9 °F - 51.1 °F 84% 29.84 in 6.0 mi Calm Calm - N/A   Haze
2:53 AM 53.1 °F - 48.9 °F 86% 29.82 in 5.0 mi Calm Calm - N/A   Clear
3:53 AM 55.0 °F - 50.0 °F 83% 29.82 in 7.0 mi Calm Calm - N/A   Clear
4:53 AM 57.9 °F - 52.0 °F 81% 29.83 in 8.0 mi WNW 3.5 mph - N/A   Scattered Clouds
5:53 AM 57.0 °F - 52.0 °F 83% 29.82 in 7.0 mi WNW 3.5 mph - N/A   Mostly Cloudy
6:53 AM 61.0 °F - 55.0 °F 81% 29.79 in 8.0 mi NNW 5.8 mph - N/A   Overcast
7:53 AM 63.0 °F - 57.0 °F 81% 29.81 in 8.0 mi Calm Calm - N/A   Overcast
8:53 AM 70.0 °F - 61.0 °F 73% 29.80 in 9.0 mi East 4.6 mph - N/A   Overcast
10:53 AM 79.0 °F - 66.0 °F 64% 29.77 in 9.0 mi Variable 6.9 mph - N/A   Mostly Cloudy
11:53 AM 82.9 °F 85.0 °F 66.0 °F 56% 29.75 in 9.0 mi Variable 6.9 mph 16.1 mph N/A   Mostly Cloudy
12:53 PM 86.0 °F 87.3 °F 64.0 °F 48% 29.73 in 10.0 mi SSW 12.7 mph 18.4 mph N/A   Overcast
1:49 PM 84.2 °F 85.6 °F 64.4 °F 51% 29.71 in 7.0 mi South 11.5 mph 19.6 mph 0.01 in Rain , Thunderstorm Light Thunderstorms and Rain
1:53 PM 82.0 °F 84.1 °F 66.0 °F 58% 29.71 in 3.0 mi Variable 6.9 mph 19.6 mph 0.09 in Rain , Thunderstorm Light Thunderstorms and Rain
2:49 PM 82.4 °F 84.6 °F 66.2 °F 58% 29.70 in 10.0 mi West 11.5 mph - N/A   Mostly Cloudy
2:53 PM 82.0 °F 84.1 °F 66.0 °F 58% 29.69 in 10.0 mi SW 3.5 mph 18.4 mph N/A   Mostly Cloudy
3:53 PM 84.0 °F 83.8 °F 59.0 °F 43% 29.69 in 10.0 mi WSW 13.8 mph 21.9 mph N/A   Mostly Cloudy
4:53 PM 82.0 °F 82.4 °F 60.1 °F 47% 29.70 in 10.0 mi SW 9.2 mph - N/A   Mostly Cloudy
5:53 PM 64.0 °F - 59.0 °F 84% 29.73 in 10.0 mi NE 5.8 mph - N/A   Mostly Cloudy
6:53 PM 61.0 °F - 57.9 °F 90% 29.75 in 6.0 mi Variable 3.5 mph - N/A   Mostly Cloudy
7:53 PM 62.1 °F - 57.9 °F 86% 29.74 in 7.0 mi Calm Calm - N/A   Mostly Cloudy
8:53 PM 62.1 °F - 57.9 °F 86% 29.73 in 7.0 mi Calm Calm - N/A   Mostly Cloudy
10:53 PM 59.0 °F - 55.9 °F 90% 29.74 in 5.0 mi Calm Calm - N/A   Clear
11:53 PM 55.9 °F - 55.0 °F 97% 29.73 in 3.0 mi Calm Calm - N/A   Clear